Weather in Glusk

Belarus     52°53′58″N   28°41′14″E
temp.,
°C
wind,
m/s
gust,
m/s
humid.,
%
clouds,
%
prec.,
mm/h
press.,
hPa
HPBL,
m
15 may, sat
sat1500:00+11sse239499 0.0 100551
03:00+9sse2597100 0.0 100598
06:00+10s2599100 0.1 1005148
09:00+14sw3490100 0.8 1006403
12:00+18ssw467142 0.4 10061098
15:00+16wsw588381 2.5 1007827
18:00+17wsw477994 1.2 1007806
21:00+13wsw3795100 3.4 1008140
16 may, sun
sun1600:00+12wsw269797 0.8 1009161
03:00+10w259816 0.8 1010110
06:00+9wsw23975 0.0 101170
09:00+14ssw23815 0.0 1012399
12:00+19s356277 0.1 10121483
15:00+20ssw2452100 0.1 10111648
18:00+20sse2558100 0.0 10091111
21:00+15se3980100 0.0 1009199
17 may, mon
mon1700:00+13se3989100 0.1 1009202
03:00+12se31094100 0.3 1009215
06:00+12ese31094100 0.4 1008247
09:00+14se2894100 1.8 1008344
12:00+16sse2485100 0.9 1007310
15:00+16e3486100 1.1 1005311
18:00+13nw1196100 2.4 100434
21:00+12n239685 2.4 100450
18 may, tue
tue1800:00+12nnw2698100 0.3 1001170
03:00+12w4799100 4.9 1000211
06:00+12w3798100 0.9 1000252
09:00+13wsw5995100 1.3 1002630
12:00+18w585959 0.1 10031572
15:00+18wsw576591 0.9 10051372
18:00+14wsw3784100 1.0 1006365
21:00+12w2591100 1.6 1007102
19 may, wed
wed1900:00+10w399580 0.0 1008219
03:00+8w37979 0.0 1009162
06:00+7w379815 0.0 1009193
09:00+13wnw368016 0.0 1009629
12:00+16w5659100 0.1 10091634
15:00+18wnw465344 0.3 10091729
18:00+17wnw355415 0.0 10091513
21:00+12n1180100 0.0 101010